Погода в Шебалине

Россия / Волгоградская область     48°16′32″N   43°21′11″E
темп.,
°C
ветер,
м/с
пор.,
м/с
влажн.,
%
обл.,
%
осадки,
мм/ч
давл.,
гПа
погр.,
м
11 мая, вт
вт1100:00+6ююв4592100 0.6 1011436
03:00+6юв5792100 1.0 1011841
06:00+7юв7992100 0.7 1011978
09:00+6юв121693100 1.9 10131155
12:00+7ююв122091100 1.6 10161404
15:00+11ююв111769100 3.3 10181505
18:00+12юв486798 0.4 1019350
21:00+10всв51282100 0.6 1019325
12 мая, ср
ср1200:00+10в71569100 0.0 1019377
03:00+9в61574100 0.0 1019395
06:00+10в6137699 0.0 1019364
09:00+15вюв68606 0.0 1019745
12:00+19юв46475 0.0 10181468
15:00+20юв45435 0.0 10171570
18:00+20вюв35545 0.0 1017152
21:00+15в23685 0.0 101617
13 мая, чт
чт1300:00+14св337288 0.0 101527
03:00+15ссв347195 0.0 101565
06:00+15св348183 0.0 101591
09:00+20всв12650 0.0 1015500
12:00+23зсз02500 0.0 10151508
15:00+25ю23450 0.0 10151634
18:00+25ю13536 0.0 1015524
21:00+20юв34695 0.0 101552
14 мая, пт
пт1400:00+18вюв44675 0.0 101546
03:00+17всв47695 0.0 101599
06:00+17вюв5107699 0.0 1015212
09:00+22юв695697 0.0 1015456
12:00+27юв79415 0.0 10151008
15:00+29юв710350 0.0 10141561
18:00+27юв612430 0.0 1013318
21:00+22юв816435 0.0 1013397
15 мая, сб
сб1500:00+20юв817390 0.0 1014383
03:00+17юв614445 0.0 1014288
06:00+17юв51452100 0.0 1014280
09:00+24ююв712367 0.0 1014632
12:00+28ююв7102826 0.0 10141171
15:00+29ююв710275 0.0 10131780
18:00+27ююв34415 0.0 101255
21:00+22юв615426 0.0 1013243